^^
Datos históricos de la estación: Murcia-Puente Tocinos
Diario Informe para Marzo 20, 2019 Unidades:  Métrico    Ingés   Ambas
Diario Semanal Mensual Anual
  Máxima: Mínima: Promedio:
Temperatura: 26.1 °C 21.8 °C 23.6 °C
Punto de rocio: 21.4 °C 19.9 °C 20.5 °C
Humedad: 91% 70.8% 83%
Velocidad viento: 18.3km/h 0km/h 7.7km/h
Racha viento: 32.8km/h - -
Viento- - Este
Presión: 1015.8 hPa 1012.7 hPa -
Precipitación: 0.0 mm    
 
 
Tabla de datos para Marzo 20, 2019
Hora Temperatura Punto de rocio Presión Viento Velocidad viento Racha viento Humedad Intensidad lluvia(por hora) Nubes
00:04 22.6 °C 20.6 °C 1015.8 hPa NNE 2.2 km/h 4.8 km/h 89% 0.0 mm
00:09 22.5 °C 20.6 °C 1015.7 hPa NNE 1.8 km/h 3.9 km/h 89% 0.0 mm
00:14 22.5 °C 20.6 °C 1015.7 hPa Calm   4.8 km/h 89% 0.0 mm
00:19 22.5 °C 20.6 °C 1015.7 hPa NNE 0.5 km/h 4.7 km/h 89% 0.0 mm
00:24 22.5 °C 20.6 °C 1015.6 hPa NNE 2.9 km/h 4.8 km/h 89% 0.0 mm
00:29 22.5 °C 20.6 °C 1015.6 hPa NNE 2.8 km/h 5.6 km/h 89% 0.0 mm
00:34 22.6 °C 20.6 °C 1015.7 hPa NNE 2.2 km/h 5.6 km/h 89% 0.0 mm
00:39 22.6 °C 20.7 °C 1015.7 hPa NNE 1.8 km/h 4.8 km/h 89% 0.0 mm
00:44 22.6 °C 20.7 °C 1015.7 hPa Calm   7.4 km/h 89% 0.0 mm
00:49 22.6 °C 20.7 °C 1015.7 hPa ONO 0.6 km/h 8 km/h 89% 0.0 mm
00:54 22.6 °C 20.6 °C 1015.6 hPa ONO 3.2 km/h 8 km/h 89% 0.0 mm
00:59 22.5 °C 20.6 °C 1015.6 hPa ONO 3.4 km/h 8 km/h 89% 0.0 mm
01:04 22.5 °C 20.6 °C 1015.6 hPa ONO 3.9 km/h 8 km/h 89% 0.0 mm
01:09 22.5 °C 20.6 °C 1015.4 hPa ONO 3.7 km/h 5.8 km/h 89% 0.0 mm
01:14 22.4 °C 20.6 °C 1015.4 hPa ONO 2.9 km/h 7.4 km/h 89% 0.0 mm
01:19 22.4 °C 20.5 °C 1015.4 hPa ONO 3 km/h 8 km/h 89% 0.0 mm
01:24 22.4 °C 20.5 °C 1015.4 hPa ONO 3.2 km/h 8 km/h 89% 0.0 mm
01:29 22.4 °C 20.5 °C 1015.4 hPa ONO 2.7 km/h 3.7 km/h 89% 0.0 mm
01:34 22.5 °C 20.6 °C 1015.5 hPa Calm   4.7 km/h 89% 0.0 mm
01:39 22.5 °C 20.6 °C 1015.5 hPa Calm   4.8 km/h 89% 0.0 mm
01:44 22.6 °C 20.5 °C 1015.5 hPa Calm   4.8 km/h 88.4% 0.0 mm
01:49 22.6 °C 20.5 °C 1015.5 hPa Calm   3.7 km/h 88% 0.0 mm
01:54 22.6 °C 20.5 °C 1015.5 hPa Calm   5.8 km/h 88% 0.0 mm
01:59 22.6 °C 20.5 °C 1015.5 hPa SSE 0.7 km/h 8 km/h 88% 0.0 mm
02:04 22.6 °C 20.5 °C 1015.7 hPa SSE 2.9 km/h 8 km/h 88% 0.0 mm
02:09 22.6 °C 20.5 °C 1015.7 hPa SSE 2.8 km/h 4.8 km/h 88% 0.0 mm
02:14 22.6 °C 20.5 °C 1015.7 hPa SSE 2.2 km/h 5.8 km/h 88% 0.0 mm
02:19 22.5 °C 20.4 °C 1015.7 hPa SSE 2.4 km/h 7.4 km/h 88% 0.0 mm
02:24 22.4 °C 20.4 °C 1015.7 hPa SSE 3.2 km/h 8 km/h 88% 0.0 mm
02:29 22.4 °C 20.3 °C 1015.7 hPa SSE 3.3 km/h 8 km/h 88% 0.0 mm
02:34 22.4 °C 20.3 °C 1015.7 hPa SSE 3.9 km/h 5.6 km/h 88% 0.0 mm
02:39 22.4 °C 20.3 °C 1015.7 hPa Sur 3.9 km/h 7.6 km/h 88% 0.0 mm
02:44 22.3 °C 20.3 °C 1015.7 hPa Sur 3.9 km/h 8 km/h 88% 0.0 mm
02:49 22.3 °C 20.3 °C 1015.7 hPa Sur 3.9 km/h 8 km/h 88.7% 0.0 mm
02:54 22.3 °C 20.4 °C 1015.6 hPa Sur 3.9 km/h 5.6 km/h 89% 0.0 mm
02:59 22.4 °C 20.5 °C 1015.6 hPa Sur 3 km/h 3.7 km/h 89% 0.0 mm
03:04 22.4 °C 20.5 °C 1015.6 hPa Calm   3.7 km/h 89% 0.0 mm
03:09 22.4 °C 20.5 °C 1015.5 hPa Sur 0.4 km/h 4.7 km/h 89% 0.0 mm
03:14 22.4 °C 20.4 °C 1015.5 hPa Sur 2.2 km/h 4.8 km/h 88.6% 0.0 mm
03:19 22.5 °C 20.4 °C 1015.5 hPa Sur 1.9 km/h 3.2 km/h 88% 0.0 mm
03:24 22.5 °C 20.4 °C 1015.4 hPa Calm   4.7 km/h 88% 0.0 mm
03:29 22.5 °C 20.4 °C 1015.4 hPa Calm   5 km/h 88% 0.0 mm
03:34 22.5 °C 20.4 °C 1015.5 hPa Calm   5.8 km/h 88% 0.0 mm
03:39 22.5 °C 20.4 °C 1015.5 hPa NO 0.4 km/h 6.4 km/h 88% 0.0 mm
03:44 22.4 °C 20.3 °C 1015.5 hPa NE 2.2 km/h 7.4 km/h 87.8% 0.0 mm
03:49 22.4 °C 20.3 °C 1015.5 hPa Este 2.4 km/h 8 km/h 87.9% 0.0 mm
03:54 22.4 °C 20.3 °C 1015.4 hPa Este 2.9 km/h 5.6 km/h 88% 0.0 mm
03:59 22.3 °C 20.3 °C 1015.4 hPa Este 2.9 km/h 5.6 km/h 88% 0.0 mm
04:04 22.4 °C 20.3 °C 1015.5 hPa Este 2.9 km/h 5.8 km/h 88% 0.0 mm
04:09 22.4 °C 20.3 °C 1015.5 hPa Este 2.9 km/h 6.4 km/h 88% 0.0 mm
04:14 22.4 °C 20.3 °C 1015.5 hPa Este 2.9 km/h 5.6 km/h 88% 0.0 mm
04:19 22.4 °C 20.3 °C 1015.5 hPa Este 2.9 km/h 5.8 km/h 88% 0.0 mm
04:24 22.4 °C 20.3 °C 1015.5 hPa Este 2.9 km/h 6.4 km/h 88% 0.0 mm
04:29 22.4 °C 20.4 °C 1015.5 hPa Este 2.9 km/h 4.8 km/h 88% 0.0 mm
04:34 22.4 °C 20.3 °C 1015.5 hPa Este 2.9 km/h 5 km/h 88% 0.0 mm
04:39 22.4 °C 20.3 °C 1015.4 hPa ESE 2.9 km/h 5.6 km/h 88% 0.0 mm
04:44 22.4 °C 20.3 °C 1015.4 hPa ESE 2.9 km/h 5.8 km/h 88% 0.0 mm
04:49 22.4 °C 20.3 °C 1015.5 hPa SE 3.1 km/h 6.4 km/h 88% 0.0 mm
04:54 22.4 °C 20.3 °C 1015.5 hPa SSE 3.9 km/h 7.6 km/h 88% 0.0 mm
04:59 22.4 °C 20.3 °C 1015.5 hPa SSE 4 km/h 8 km/h 88% 0.0 mm
05:04 22.3 °C 20.3 °C 1015.5 hPa SSE 4.6 km/h 8 km/h 88% 0.0 mm
05:09 22.3 °C 20.2 °C 1015.5 hPa Sur 4.4 km/h 7.4 km/h 88% 0.0 mm
05:14 22.3 °C 20.2 °C 1015.5 hPa Sur 3.2 km/h 8 km/h 88% 0.0 mm
05:19 22.3 °C 20.2 °C 1015.5 hPa Sur 3.5 km/h 8 km/h 88% 0.0 mm
05:24 22.3 °C 20.2 °C 1015.5 hPa Sur 4.7 km/h 8 km/h 88% 0.0 mm
05:29 22.3 °C 20.2 °C 1015.5 hPa SSO 4.2 km/h 5.6 km/h 88% 0.0 mm
05:34 22.4 °C 20.3 °C 1015.6 hPa SSO 2.3 km/h 4.8 km/h 88% 0.0 mm
05:39 22.4 °C 20.3 °C 1015.6 hPa SSO 2.2 km/h 4.8 km/h 88% 0.0 mm
05:44 22.4 °C 20.3 °C 1015.6 hPa SSO 2.2 km/h 3.9 km/h 88% 0.0 mm
05:49 22.3 °C 20.2 °C 1015.6 hPa SSO 2.2 km/h 5.6 km/h 88% 0.0 mm
05:54 22.2 °C 20.2 °C 1015.4 hPa SSO 2.2 km/h 4.8 km/h 88.4% 0.0 mm
05:59 22.2 °C 20.3 °C 1015.4 hPa SSO 2.2 km/h 3.9 km/h 89% 0.0 mm
06:04 22.2 °C 20.3 °C 1015.6 hPa SSO 2.2 km/h 3.7 km/h 89% 0.0 mm
06:09 22.2 °C 20.3 °C 1015.6 hPa SSO 2.2 km/h 4.7 km/h 89% 0.0 mm
06:14 22.2 °C 20.3 °C 1015.6 hPa SSO 2.2 km/h 5 km/h 89% 0.0 mm
06:19 22.2 °C 20.3 °C 1015.6 hPa SSO 2.4 km/h 5.6 km/h 89% 0.0 mm
06:24 22.2 °C 20.3 °C 1015.5 hPa SSO 2.9 km/h 4.8 km/h 89% 0.0 mm
06:29 22.2 °C 20.3 °C 1015.5 hPa SSO 2.4 km/h 3.9 km/h 89% 0.0 mm
06:34 22.2 °C 20.3 °C 1015.5 hPa Calm   5 km/h 89% 0.0 mm
06:39 22.2 °C 20.2 °C 1015.4 hPa ESE 0.5 km/h 9.5 km/h 89% 0.0 mm
06:44 22 °C 20.1 °C 1015.4 hPa SE 3.2 km/h 9.7 km/h 89% 0.0 mm
06:49 21.9 °C 20.1 °C 1015.4 hPa SE 3.3 km/h 8 km/h 89.8% 0.0 mm
06:54 21.9 °C 20.2 °C 1015.2 hPa SE 3.9 km/h 4.8 km/h 90% 0.0 mm
06:59 22 °C 20.3 °C 1015.2 hPa SE 3 km/h 3.9 km/h 90% 0.0 mm
07:04 22.1 °C 20.4 °C 1015.2 hPa Calm   5.8 km/h 90% 0.0 mm
07:09 22.1 °C 20.3 °C 1015.1 hPa NNE 0.6 km/h 7.4 km/h 89.8% 0.0 mm
07:14 22 °C 20.3 °C 1015.1 hPa NNE 3.2 km/h 8 km/h 89.9% 0.0 mm
07:19 22 °C 20.3 °C 1015.1 hPa NNE 3.2 km/h 7.6 km/h 90% 0.0 mm
07:24 21.9 °C 20.2 °C 1015.0 hPa NNE 3.2 km/h 8 km/h 90% 0.0 mm
07:29 21.9 °C 20.2 °C 1015.0 hPa ENE 3.5 km/h 9.3 km/h 90% 0.0 mm
07:34 21.8 °C 20.1 °C 1015.0 hPa ENE 5 km/h 9.7 km/h 90% 0.0 mm
07:39 21.8 °C 20.1 °C 1014.7 hPa ENE 4.7 km/h 6.4 km/h 90% 0.0 mm
07:44 21.8 °C 20.3 °C 1014.7 hPa ENE 3.2 km/h 7.4 km/h 91% 0.0 mm
07:49 21.9 °C 20.4 °C 1014.7 hPa ENE 3.2 km/h 8 km/h 91% 0.0 mm
07:54 21.9 °C 20.4 °C 1014.6 hPa NE 3.2 km/h 8 km/h 91% 0.0 mm
07:59 21.9 °C 20.4 °C 1014.6 hPa NNE 3.2 km/h 8 km/h 91% 0.0 mm
08:04 21.9 °C 20.4 °C 1014.6 hPa NNE 3.2 km/h 8 km/h 91% 0.0 mm
08:09 21.9 °C 20.4 °C 1014.5 hPa NNE 3.2 km/h 4.8 km/h 91% 0.0 mm
08:14 21.9 °C 20.4 °C 1014.5 hPa NNE 2.9 km/h 5.6 km/h 91% 0.0 mm
08:19 21.9 °C 20.4 °C 1014.7 hPa NNE 2.8 km/h 4.8 km/h 91% 0.0 mm
08:24 21.9 °C 20.4 °C 1014.7 hPa NNE 2.2 km/h 3.2 km/h 91% 0.0 mm
08:29 21.9 °C 20.4 °C 1014.7 hPa NNE 1.8 km/h 3.7 km/h 91% 0.0 mm
08:34 21.9 °C 20.4 °C 1014.7 hPa Calm   3.9 km/h 91% 0.0 mm
08:39 22 °C 20.4 °C 1014.7 hPa NNE 0.4 km/h 5.6 km/h 91% 0.0 mm
08:44 22 °C 20.5 °C 1014.7 hPa NNE 2.2 km/h 4.8 km/h 91% 0.0 mm
08:49 22.1 °C 20.5 °C 1014.7 hPa NNE 1.9 km/h 5.6 km/h 90.6% 0.0 mm
08:54 22.1 °C 20.4 °C 1014.6 hPa Calm   4.8 km/h 90% 0.0 mm
08:59 22.1 °C 20.4 °C 1014.6 hPa NNE 0.6 km/h 5.6 km/h 90% 0.0 mm
09:04 22.1 °C 20.4 °C 1014.8 hPa NNE 2.2 km/h 4.8 km/h 90% 0.0 mm
09:09 22.2 °C 20.5 °C 1014.8 hPa NNE 1.8 km/h 3.7 km/h 90% 0.0 mm
09:14 22.2 °C 20.5 °C 1014.8 hPa Calm   7.6 km/h 90% 0.0 mm
09:19 22.3 °C 20.5 °C 1014.9 hPa Sur 0.6 km/h 8 km/h 89.8% 0.0 mm
09:24 22.4 °C 20.5 °C 1014.9 hPa SSE 3.2 km/h 8 km/h 89% 0.0 mm
09:29 22.4 °C 20.5 °C 1014.9 hPa SSE 3.5 km/h 8.4 km/h 89% 0.0 mm
09:34 22.4 °C 20.4 °C 1015.0 hPa SSE 4.7 km/h 8 km/h 88.1% 0.0 mm
09:39 22.4 °C 20.3 °C 1015.0 hPa SE 4.6 km/h 8 km/h 88% 0.0 mm
09:44 22.5 °C 20.4 °C 1015.0 hPa SSE 4.7 km/h 8 km/h 88% 0.0 mm
09:49 22.6 °C 20.5 °C 1015.2 hPa Sur 4.7 km/h 8 km/h 88% 0.0 mm
09:54 22.6 °C 20.5 °C 1015.2 hPa Sur 4.7 km/h 8 km/h 88% 0.0 mm
09:59 22.7 °C 20.6 °C 1015.2 hPa Sur 4.1 km/h 4.8 km/h 88% 0.0 mm
10:04 22.7 °C 20.5 °C 1015.2 hPa SE 2.2 km/h 5.8 km/h 87.1% 0.0 mm
10:09 22.8 °C 20.3 °C 1015.2 hPa NNO 2.4 km/h 10 km/h 86% 0.0 mm
10:14 22.9 °C 20.2 °C 1015.2 hPa NNE 3.2 km/h 9.7 km/h 85% 0.0 mm
10:19 23.1 °C 20.3 °C 1015.3 hPa NNE 3.5 km/h 9.7 km/h 84.7% 0.0 mm
10:24 23.3 °C 20.3 °C 1015.3 hPa ENE 5 km/h 11.1 km/h 83.8% 0.0 mm
10:29 23.4 °C 20.3 °C 1015.3 hPa NE 5 km/h 11.3 km/h 83% 0.0 mm
10:34 23.5 °C 20.3 °C 1015.3 hPa NE 5 km/h 14.8 km/h 82.1% 0.0 mm
10:39 23.7 °C 20.4 °C 1015.3 hPa NE 5.3 km/h 14.8 km/h 82% 0.0 mm
10:44 23.8 °C 20.4 °C 1015.3 hPa NNE 6.9 km/h 19 km/h 80.9% 0.0 mm
10:49 24.1 °C 20.4 °C 1015.3 hPa NE 6.8 km/h 19.3 km/h 79.8% 0.0 mm
10:54 24.1 °C 20.2 °C 1015.3 hPa NE 6.5 km/h 20.9 km/h 79.2% 0.0 mm
10:59 24.1 °C 20.4 °C 1015.3 hPa NE 7.2 km/h 20.9 km/h 79.6% 0.0 mm
11:04 24.1 °C 20.2 °C 1015.5 hPa NE 10 km/h 20.4 km/h 79% 0.0 mm
11:09 24.1 °C 20.2 °C 1015.5 hPa NE 10 km/h 20.9 km/h 79% 0.0 mm
11:14 24.2 °C 20.3 °C 1015.5 hPa NE 10.3 km/h 16.1 km/h 79% 0.0 mm
11:19 24.3 °C 20.3 °C 1015.5 hPa NE 10.3 km/h 20.4 km/h 78.6% 0.0 mm
11:24 24.3 °C 20.1 °C 1015.5 hPa NE 10.3 km/h 20.9 km/h 77.5% 0.0 mm
11:29 24.4 °C 20 °C 1015.5 hPa NE 10.6 km/h 24.1 km/h 76.6% 0.0 mm
11:34 24.6 °C 20.1 °C 1015.5 hPa NE 12.2 km/h 24.1 km/h 75.8% 0.0 mm
11:39 24.8 °C 19.9 °C 1015.5 hPa NE 12.5 km/h 24.5 km/h 74.2% 0.0 mm
11:44 24.8 °C 19.9 °C 1015.5 hPa NE 13.7 km/h 24.1 km/h 74% 0.0 mm
11:49 24.9 °C 20 °C 1015.5 hPa NE 13.1 km/h 20.9 km/h 74% 0.0 mm
11:54 25.1 °C 20.1 °C 1015.4 hPa NE 10.3 km/h 20.9 km/h 73.7% 0.0 mm
11:59 25.2 °C 20 °C 1015.4 hPa NE 10.5 km/h 19.3 km/h 72.8% 0.0 mm
12:04 25.3 °C 20 °C 1015.4 hPa NNE 11.1 km/h 22.5 km/h 72.5% 0.0 mm
12:09 25.3 °C 19.9 °C 1015.3 hPa NE 11.8 km/h 24.5 km/h 72.1% 0.0 mm
12:14 25.2 °C 19.9 °C 1015.3 hPa NE 14.8 km/h 24.1 km/h 72.6% 0.0 mm
12:19 25.2 °C 20 °C 1015.3 hPa NE 14.7 km/h 22.5 km/h 73.1% 0.0 mm
12:24 25.1 °C 20.1 °C 1015.2 hPa NE 14 km/h 22.5 km/h 74% 0.0 mm
12:29 25.2 °C 20.1 °C 1015.2 hPa NE 13.7 km/h 22.5 km/h 73.7% 0.0 mm
12:34 25.3 °C 19.9 °C 1015.2 hPa NE 12.2 km/h 22.5 km/h 72.3% 0.0 mm
12:39 25.4 °C 19.9 °C 1015.0 hPa ENE 12.4 km/h 27 km/h 71.5% 0.0 mm
12:44 25.7 °C 20.1 °C 1015.0 hPa Este 13 km/h 27.8 km/h 71.2% 0.0 mm
12:49 25.6 °C 20 °C 1015.0 hPa ENE 13 km/h 29.6 km/h 71% 0.0 mm
12:54 25.7 °C 20.2 °C 1014.9 hPa ENE 13 km/h 29 km/h 71.6% 0.0 mm
12:59 25.6 °C 20.2 °C 1014.9 hPa NE 12.9 km/h 27.8 km/h 72.2% 0.0 mm
13:04 25.4 °C 20.3 °C 1015.0 hPa NE 12.2 km/h 28.2 km/h 73.4% 0.0 mm
13:09 25.3 °C 20.3 °C 1015.0 hPa NE 12.7 km/h 27.4 km/h 74% 0.0 mm
13:14 25.3 °C 20.2 °C 1015.0 hPa NE 14.8 km/h 22.5 km/h 73.5% 0.0 mm
13:19 25.3 °C 20.3 °C 1015.0 hPa NNE 14.8 km/h 24.1 km/h 73.8% 0.0 mm
13:24 25.3 °C 20.2 °C 1015.0 hPa NE 14.8 km/h 24.1 km/h 73.3% 0.0 mm
13:29 25.4 °C 20.3 °C 1015.0 hPa NE 14.3 km/h 22.5 km/h 73.6% 0.0 mm
13:34 25.5 °C 20.5 °C 1015.0 hPa NE 12.2 km/h 22.5 km/h 74.1% 0.0 mm
13:39 25.5 °C 20.5 °C 1014.9 hPa NE 12.2 km/h 27 km/h 74% 0.0 mm
13:44 25.4 °C 20.4 °C 1014.9 hPa NE 11.9 km/h 27.8 km/h 73.8% 0.0 mm
13:49 25.5 °C 20.3 °C 1014.9 hPa NE 12.5 km/h 27.4 km/h 73% 0.0 mm
13:54 25.7 °C 20.4 °C 1014.8 hPa ENE 14.8 km/h 25.9 km/h 72.8% 0.0 mm
13:59 25.9 °C 20.4 °C 1014.8 hPa ENE 14.4 km/h 29.6 km/h 71.9% 0.0 mm
14:04 25.9 °C 20.2 °C 1014.9 hPa ENE 13 km/h 29 km/h 70.8% 0.0 mm
14:09 25.9 °C 20.2 °C 1014.9 hPa Este 12.9 km/h 22.5 km/h 70.9% 0.0 mm
14:14 26 °C 20.3 °C 1014.9 hPa ENE 12.2 km/h 25.9 km/h 71% 0.0 mm
14:19 26 °C 20.3 °C 1014.9 hPa ENE 12.4 km/h 29.6 km/h 71% 0.0 mm
14:24 26 °C 20.4 °C 1014.8 hPa ENE 13 km/h 29 km/h 71.1% 0.0 mm
14:29 26.1 °C 20.4 °C 1014.7 hPa ENE 13.4 km/h 29.6 km/h 70.9% 0.0 mm
14:34 26 °C 20.4 °C 1014.7 hPa NE 14.8 km/h 29 km/h 71.4% 0.0 mm
14:39 25.9 °C 20.2 °C 1014.6 hPa ENE 14.6 km/h 27.8 km/h 71% 0.0 mm
14:44 25.8 °C 20.4 °C 1014.6 hPa ENE 14 km/h 29.6 km/h 71.9% 0.0 mm
14:49 25.8 °C 20.2 °C 1014.6 hPa ENE 14.2 km/h 29.6 km/h 71% 0.0 mm
14:54 25.7 °C 20.3 °C 1014.5 hPa NE 14.8 km/h 29 km/h 72% 0.0 mm
14:59 25.6 °C 20.4 °C 1014.5 hPa NE 14.6 km/h 27.4 km/h 73% 0.0 mm
15:04 25.6 °C 20.3 °C 1014.5 hPa NE 14 km/h 25.9 km/h 73% 0.0 mm
15:09 25.4 °C 20.4 °C 1014.5 hPa NE 13.8 km/h 25.7 km/h 73.8% 0.0 mm
15:14 25.3 °C 20.3 °C 1014.5 hPa ENE 13 km/h 25.9 km/h 73.4% 0.0 mm
15:19 25.3 °C 20.3 °C 1014.5 hPa ENE 12.8 km/h 25.7 km/h 74% 0.0 mm
15:24 25.3 °C 20.4 °C 1014.3 hPa NE 11.9 km/h 20.9 km/h 74.3% 0.0 mm
15:29 25.4 °C 20.4 °C 1014.3 hPa NE 11.7 km/h 20.9 km/h 74% 0.0 mm
15:34 25.4 °C 20.5 °C 1014.3 hPa ENE 11.1 km/h 27.8 km/h 74% 0.0 mm
15:39 25.4 °C 20.5 °C 1013.9 hPa ENE 11.7 km/h 27.4 km/h 74.1% 0.0 mm
15:44 25.4 °C 20.5 °C 1013.9 hPa ENE 14 km/h 30.9 km/h 74.4% 0.0 mm
15:49 25.4 °C 20.4 °C 1013.9 hPa NE 14.8 km/h 32.8 km/h 73.6% 0.0 mm
15:54 25.5 °C 20.3 °C 1013.8 hPa NE 18 km/h 32.2 km/h 73.4% 0.0 mm
15:59 25.6 °C 20.5 °C 1013.8 hPa NE 17.6 km/h 27.4 km/h 73.7% 0.0 mm
16:04 25.7 °C 20.8 °C 1013.8 hPa NE 16.1 km/h 24.1 km/h 74.7% 0.0 mm
16:09 25.6 °C 20.6 °C 1013.6 hPa ENE 15.7 km/h 28.2 km/h 74% 0.0 mm
16:14 25.6 °C 20.6 °C 1013.6 hPa NE 13.7 km/h 27.4 km/h 74.2% 0.0 mm
16:19 25.5 °C 20.5 °C 1013.6 hPa NE 14 km/h 28.2 km/h 74% 0.0 mm
16:24 25.4 °C 20.6 °C 1013.6 hPa NE 15.6 km/h 27.4 km/h 74.5% 0.0 mm
16:29 25.5 °C 20.6 °C 1013.6 hPa NE 15.4 km/h 25.9 km/h 74.5% 0.0 mm
16:34 25.4 °C 20.5 °C 1013.6 hPa NE 14.8 km/h 27.8 km/h 74.2% 0.0 mm
16:39 25.5 °C 20.3 °C 1013.3 hPa NE 14.6 km/h 27.4 km/h 73% 0.0 mm
16:44 25.5 °C 20.3 °C 1013.3 hPa NE 13.7 km/h 27.8 km/h 73% 0.0 mm
16:49 25.4 °C 20.2 °C 1013.3 hPa NE 14.5 km/h 31.5 km/h 73% 0.0 mm
16:54 25.4 °C 20.2 °C 1013.2 hPa NE 18.3 km/h 32.2 km/h 73% 0.0 mm
16:59 25.4 °C 20.3 °C 1013.2 hPa NE 17.8 km/h 27.4 km/h 73.1% 0.0 mm
17:04 25.5 °C 20.5 °C 1013.2 hPa NE 16.1 km/h 24.1 km/h 74% 0.0 mm
17:09 25.5 °C 20.3 °C 1013.1 hPa NE 15.6 km/h 24.1 km/h 73.2% 0.0 mm
17:14 25.4 °C 20.2 °C 1013.1 hPa NE 13 km/h 31.7 km/h 73.1% 0.0 mm
17:19 25.3 °C 20.3 °C 1013.2 hPa NE 13.8 km/h 32.2 km/h 73.7% 0.0 mm
17:24 25.3 °C 20.3 °C 1013.2 hPa NE 17.2 km/h 29 km/h 74% 0.0 mm
17:29 25.3 °C 20.3 °C 1013.2 hPa NE 16.6 km/h 29.6 km/h 74% 0.0 mm
17:34 25.2 °C 20.4 °C 1013.3 hPa NE 14 km/h 29 km/h 74.9% 0.0 mm
17:39 25.2 °C 20.2 °C 1013.3 hPa NE 14.3 km/h 29.6 km/h 74% 0.0 mm
17:44 25.1 °C 20.1 °C 1013.3 hPa NE 15.6 km/h 29 km/h 73.9% 0.0 mm
17:49 25.1 °C 20.2 °C 1013.3 hPa NE 15.9 km/h 27.8 km/h 74.4% 0.0 mm
17:54 25 °C 20.2 °C 1013.3 hPa NE 17.2 km/h 27.8 km/h 74.9% 0.0 mm
17:59 25 °C 20.3 °C 1013.3 hPa NE 16.4 km/h 25.7 km/h 75% 0.0 mm
18:04 25 °C 20.3 °C 1013.4 hPa NE 13.7 km/h 19.3 km/h 75% 0.0 mm
18:09 25 °C 20.3 °C 1013.4 hPa NE 13.3 km/h 24.1 km/h 75.4% 0.0 mm
18:14 24.8 °C 20.3 °C 1013.4 hPa NE 11.9 km/h 25.9 km/h 76% 0.0 mm
18:19 24.8 °C 20.3 °C 1013.4 hPa NE 12.2 km/h 25.7 km/h 76.1% 0.0 mm
18:24 24.8 °C 20.5 °C 1013.3 hPa NE 13.7 km/h 22.5 km/h 77% 0.0 mm
18:29 24.8 °C 20.5 °C 1013.3 hPa NE 13.6 km/h 22.5 km/h 77% 0.0 mm
18:34 24.7 °C 20.4 °C 1013.4 hPa NE 13 km/h 19.3 km/h 77% 0.0 mm
18:39 24.7 °C 20.4 °C 1013.4 hPa NE 12.7 km/h 19 km/h 77% 0.0 mm
18:44 24.7 °C 20.4 °C 1013.4 hPa NE 11.1 km/h 19.3 km/h 77.2% 0.0 mm
18:49 24.7 °C 20.3 °C 1013.5 hPa NE 11.1 km/h 20.4 km/h 76.7% 0.0 mm
18:54 24.7 °C 20.3 °C 1013.5 hPa NE 11.1 km/h 20.9 km/h 76.4% 0.0 mm
18:59 24.7 °C 20.2 °C 1013.5 hPa ENE 11.3 km/h 20.9 km/h 76% 0.0 mm
19:04 24.7 °C 20.3 °C 1013.5 hPa ENE 11.9 km/h 20.9 km/h 76.7% 0.0 mm
19:09 24.7 °C 20.4 °C 1013.4 hPa NE 11.8 km/h 20.9 km/h 77% 0.0 mm
19:14 24.6 °C 20.5 °C 1013.4 hPa NE 11.1 km/h 20.4 km/h 77.9% 0.0 mm
19:19 24.6 °C 20.6 °C 1013.4 hPa NE 11.3 km/h 22.2 km/h 78.6% 0.0 mm
19:24 24.4 °C 20.7 °C 1013.3 hPa NE 11.9 km/h 22.5 km/h 79.6% 0.0 mm
19:29 24.4 °C 20.7 °C 1013.3 hPa NE 11.8 km/h 22.5 km/h 80% 0.0 mm
19:34 24.3 °C 20.9 °C 1013.3 hPa NE 11.1 km/h 18.5 km/h 80.9% 0.0 mm
19:39 24.3 °C 20.8 °C 1013.3 hPa NE 11.1 km/h 19.3 km/h 81% 0.0 mm
19:44 24.2 °C 20.7 °C 1013.3 hPa NE 11.1 km/h 19.3 km/h 81% 0.0 mm
19:49 24.2 °C 20.7 °C 1013.3 hPa NE 11 km/h 22.2 km/h 81% 0.0 mm
19:54 24.1 °C 20.8 °C 1013.2 hPa NE 10.3 km/h 22.5 km/h 81.9% 0.0 mm
19:59 24.1 °C 20.8 °C 1013.2 hPa NE 10.1 km/h 16.1 km/h 82% 0.0 mm
20:04 24.1 °C 20.8 °C 1013.5 hPa NE 9.5 km/h 20.4 km/h 82% 0.0 mm
20:09 24.1 °C 21 °C 1013.5 hPa NE 9.3 km/h 20.9 km/h 82.7% 0.0 mm
20:14 24.1 °C 21 °C 1013.5 hPa NE 8.7 km/h 19 km/h 83% 0.0 mm
20:19 24 °C 20.9 °C 1013.5 hPa NE 8.8 km/h 19.3 km/h 83% 0.0 mm
20:24 23.9 °C 20.9 °C 1013.4 hPa NE 9.5 km/h 16.1 km/h 83.1% 0.0 mm
20:29 23.9 °C 21.1 °C 1013.4 hPa NE 9.2 km/h 13 km/h 84% 0.0 mm
20:34 23.9 °C 21.1 °C 1014.0 hPa Este 7.6 km/h 12.9 km/h 84% 0.0 mm
20:39 23.9 °C 21.1 °C 1014.0 hPa ENE 7.1 km/h 9.3 km/h 84% 0.0 mm
20:44 23.8 °C 21 °C 1014.0 hPa ENE 5 km/h 9.7 km/h 84% 0.0 mm
20:49 23.8 °C 20.9 °C 1014.0 hPa Este 5 km/h 9.7 km/h 84% 0.0 mm
20:54 23.8 °C 21 °C 1013.9 hPa NE 5 km/h 10 km/h 84.1% 0.0 mm
20:59 23.8 °C 21.1 °C 1013.9 hPa NE 5 km/h 9.7 km/h 85% 0.0 mm
21:04 23.7 °C 21 °C 1014.0 hPa NE 5 km/h 10 km/h 85% 0.0 mm
21:09 23.7 °C 21.1 °C 1014.0 hPa NE 5.2 km/h 11.1 km/h 85.3% 0.0 mm
21:14 23.6 °C 21.1 °C 1014.0 hPa NNE 6.4 km/h 13.7 km/h 86% 0.0 mm
21:19 23.6 °C 21.1 °C 1014.0 hPa NE 6.8 km/h 14.8 km/h 86% 0.0 mm
21:24 23.6 °C 21.3 °C 1013.6 hPa NE 8.4 km/h 19 km/h 86.7% 0.0 mm
21:29 23.5 °C 21.2 °C 1013.6 hPa NE 8.6 km/h 20.4 km/h 87% 0.0 mm
21:34 23.6 °C 21.3 °C 1013.6 hPa NE 11.9 km/h 19.3 km/h 87% 0.0 mm
21:39 23.6 °C 21.3 °C 1013.2 hPa NE 11.8 km/h 20.9 km/h 87% 0.0 mm
21:44 23.5 °C 21.2 °C 1013.2 hPa NE 11.1 km/h 20.9 km/h 87% 0.0 mm
21:49 23.4 °C 21.1 °C 1013.2 hPa NE 11.3 km/h 20.9 km/h 87% 0.0 mm
21:54 23.4 °C 21.1 °C 1012.7 hPa NE 12.2 km/h 22.2 km/h 87% 0.0 mm
21:59 23.3 °C 21.2 °C 1012.7 hPa NE 12.2 km/h 22.5 km/h 87.9% 0.0 mm
22:04 23.3 °C 21.2 °C 1012.9 hPa NE 11.9 km/h 19.3 km/h 88% 0.0 mm
22:09 23.3 °C 21.2 °C 1012.9 hPa NE 11.6 km/h 18.5 km/h 88% 0.0 mm
22:14 23.3 °C 21.2 °C 1012.9 hPa NE 10 km/h 19.3 km/h 88% 0.0 mm
22:19 23.3 °C 21.3 °C 1013.0 hPa NE 10 km/h 16.1 km/h 88.2% 0.0 mm
22:24 23.2 °C 21.3 °C 1013.0 hPa NE 10 km/h 16.7 km/h 89% 0.0 mm
22:29 23.2 °C 21.3 °C 1013.0 hPa NE 10 km/h 16.1 km/h 89% 0.0 mm
22:34 23.2 °C 21.3 °C 1013.0 hPa NE 10 km/h 16.1 km/h 89% 0.0 mm
22:39 23.2 °C 21.3 °C 1012.7 hPa NE 10 km/h 18.5 km/h 89% 0.0 mm
22:44 23.2 °C 21.2 °C 1012.7 hPa NE 10 km/h 19.3 km/h 89% 0.0 mm
22:49 23.1 °C 21.2 °C 1012.7 hPa NE 10 km/h 17.7 km/h 89.2% 0.0 mm
22:54 23.2 °C 21.4 °C 1012.7 hPa NE 10.3 km/h 16.7 km/h 90% 0.0 mm
22:59 23.1 °C 21.4 °C 1012.7 hPa NE 10.1 km/h 18.5 km/h 90% 0.0 mm
23:04 23.1 °C 21.4 °C 1012.9 hPa NE 9.5 km/h 19.3 km/h 90% 0.0 mm
23:09 23.1 °C 21.4 °C 1012.9 hPa NE 9.5 km/h 16.1 km/h 90% 0.0 mm
23:14 23.1 °C 21.4 °C 1012.9 hPa NE 9.5 km/h 16.7 km/h 90% 0.0 mm
23:19 23.1 °C 21.4 °C 1012.9 hPa NE 9.5 km/h 16.1 km/h 90% 0.0 mm
23:24 23.1 °C 21.4 °C 1012.8 hPa NE 10 km/h 16.1 km/h 90% 0.0 mm
23:29 23.1 °C 21.4 °C 1012.8 hPa NNE 9.6 km/h 12.9 km/h 90% 0.0 mm
23:34 23.1 °C 21.4 °C 1013.0 hPa NE 6.9 km/h 9.7 km/h 90% 0.0 mm
23:39 23.1 °C 21.4 °C 1013.0 hPa NE 6.6 km/h 9.5 km/h 90% 0.0 mm
23:44 23 °C 21.3 °C 1013.0 hPa NNE 5 km/h 9.7 km/h 90% 0.0 mm
23:49 23 °C 21.3 °C 1013.0 hPa NNE 5 km/h 9.5 km/h 90% 0.0 mm
23:54 23 °C 21.2 °C 1013.0 hPa NNO 5 km/h 9.7 km/h 90% 0.0 mm
23:59 22.9 °C 21.2 °C 1013.0 hPa North 4.7 km/h 8 km/h 90.4% 0.0 mm
Murcia-Puente Tocinos, España
Compliments of Weather Underground - 3 mb

La estación de MeteoMurcia.com, publica sus datos en los siguientes proyectos:

Weather Underground PWS IMURCIAP2 Meteoclimatic www.awekas.at

W3Counter
Web Analytics